Location: Lobstick
(53.6000°N, 115.1667°W)
Time: 11:20:25
(UTC+00:00)

Gurwin Techsat 1B - Pass Details

Date: 05 December 2023
Orbit: 810 x 813 km, 98.9° (Epoch: 21 February)

Event Time Altitude Azimuth Distance (km) Brightness Sun altitude
Rises 11:37:18 0° 14° (NNE) 3,351 12.1 -34.6°
Reaches altitude 10° 11:39:39 10° 13° (NNE) 2,416 11.3 -34.3°
Enters shadow 11:40:29 15° 11° (NNE) 2,096 10.9 -34.1°
